TimeAST,TemperatureF,Dew PointF,Humidity,Sea Level PressureIn,VisibilityMPH,Wind Direction,Wind SpeedMPH,Gust SpeedMPH,PrecipitationIn,Events,Conditions,WindDirDegrees,DateUTC
12:56 AM,72.0,66.9,84,30.03,10.0,East,4.6,-,0.03,,Scattered Clouds,90,2013-01-15 04:56:00
1:56 AM,72.0,66.9,84,30.02,10.0,Calm,Calm,-,N/A,,Scattered Clouds,0,2013-01-15 05:56:00
2:56 AM,73.0,66.9,81,30.01,10.0,East,3.5,-,0.06,,Scattered Clouds,100,2013-01-15 06:56:00
3:56 AM,73.0,66.0,79,30.01,10.0,SE,4.6,-,N/A,,Scattered Clouds,130,2013-01-15 07:56:00
4:56 AM,73.0,66.9,81,30.00,10.0,Variable,4.6,-,N/A,,Mostly Cloudy,0,2013-01-15 08:56:00
5:56 AM,72.0,66.9,84,30.01,10.0,SSE,3.5,-,N/A,,Mostly Cloudy,150,2013-01-15 09:56:00
6:56 AM,72.0,66.9,84,30.03,10.0,Calm,Calm,-,0.01,Rain,Light Rain,0,2013-01-15 10:56:00
7:56 AM,73.0,69.1,87,30.04,10.0,Calm,Calm,-,0.02,,Mostly Cloudy,0,2013-01-15 11:56:00
8:56 AM,75.9,68.0,76,30.05,10.0,East,3.5,-,N/A,,Scattered Clouds,100,2013-01-15 12:56:00
9:56 AM,78.1,68.0,71,30.06,10.0,ESE,4.6,-,N/A,,Scattered Clouds,110,2013-01-15 13:56:00
10:56 AM,80.1,68.0,67,30.04,10.0,ENE,10.4,-,0.00,,Scattered Clouds,70,2013-01-15 14:56:00
11:56 AM,81.0,68.0,65,30.02,10.0,NE,11.5,-,N/A,,Scattered Clouds,50,2013-01-15 15:56:00
12:56 PM,80.1,68.0,67,30.00,10.0,ENE,16.1,20.7,N/A,,Mostly Cloudy,70,2013-01-15 16:56:00
1:56 PM,81.0,68.0,65,29.98,10.0,East,15.0,-,N/A,,Mostly Cloudy,80,2013-01-15 17:56:00
2:56 PM,81.0,66.9,62,29.98,10.0,NE,15.0,-,N/A,,Scattered Clouds,50,2013-01-15 18:56:00
3:56 PM,79.0,66.9,66,29.99,10.0,ENE,12.7,-,N/A,,Scattered Clouds,70,2013-01-15 19:56:00
4:56 PM,77.4,70.3,79,30.00,10.0,ENE,11.5,-,N/A,,Scattered Clouds,60,2013-01-15 20:56:00
5:56 PM,74.5,70.3,87,30.01,10.0,ENE,16.1,21.9,N/A,,Scattered Clouds,60,2013-01-15 21:56:00
6:56 PM,74.8,68.9,82,30.02,10.0,ENE,10.4,17.3,N/A,,Scattered Clouds,70,2013-01-15 22:56:00
7:56 PM,75.9,64.0,67,30.03,10.0,ENE,18.4,21.9,N/A,,Scattered Clouds,70,2013-01-15 23:56:00
8:56 PM,77.0,64.0,64,30.03,10.0,ENE,12.7,-,N/A,,Scattered Clouds,60,2013-01-16 00:56:00
9:56 PM,77.0,63.0,62,30.02,10.0,ENE,15.0,21.9,N/A,,Scattered Clouds,60,2013-01-16 01:56:00
10:56 PM,75.9,64.0,67,30.02,10.0,ENE,12.7,-,N/A,,Scattered Clouds,60,2013-01-16 02:56:00
11:56 PM,75.9,63.0,64,30.02,10.0,ENE,13.8,-,N/A,,Partly Cloudy,60,2013-01-16 03:56:00